Hourly Data Report for June 20, 2021

SHEARWATER RCS
NOVA SCOTIA
Current Station Operator: ECCC - MSC

44°37'47.000" N
63°30'48.000" W
24.00 m
8205092
71264
AAW

Download Data

Hourly Data (June 2021)
Hourly Data Report for June 20, 2021
TIME
LST
Temp Definition
°C
Dew Point Definition
°C
Rel Hum Definition
%
Precip. Amount Definition
mm

Wind Dir Definition
10's deg

Wind Spd Definition
km/h
Visibility Definition
km
Stn Press Definition
kPa
Hmdx Definition


Wind Chill Definition


Weather Definition


00:00 14.6 14.3 98 0.0 24 8   100.21     LegendNANA
01:00 14.5 14.2 98 0.0 19 7   100.19     LegendNANA
02:00 14.4 14.2 98 0.0 22 5   100.15     LegendNANA
03:00 14.7 14.5 99 0.0 23 5   100.14     LegendNANA
04:00 14.1 13.9 99 0.0 10 5   100.12     LegendNANA
05:00 13.0 12.8 99 0.0 14 7   100.15     LegendNANA
06:00 12.8 12.7 99 0.0 12 5   100.16     LegendNANA
07:00 13.2 13.1 99 0.0 15 4   100.22     LegendNANA
08:00 15.1 14.9 99 0.0 23 4   100.24     LegendNANA
09:00 16.3 15.8 97 0.0 16 7   100.26     LegendNANA
10:00 18.8 16.4 86 0.2 16 6   100.23     LegendNANA
11:00 21.1 17.8 81 0.0 16 8   100.19 27   LegendNANA
12:00 23.6 15.6 61 0.0 24 13   100.18 28   LegendNANA
13:00 24.7 16.2 59 0.0 23 18   100.16 29   LegendNANA
14:00 23.8 17.0 66 0.0 19 16   100.14 29   LegendNANA
15:00 24.5 16.4 61 0.0 20 16   100.12 29   LegendNANA
16:00 25.5 15.4 53 0.0 20 13   100.10 30   LegendNANA
17:00 24.8 15.5 56 0.0 19 11   100.13 29   LegendNANA
18:00 24.8 14.9 54 0.0 24 6   100.21 29   LegendNANA
19:00 24.1 13.6 52 0.0 27 4   100.28 27   LegendNANA
20:00 23.4 13.1 52 0.0 31 8   100.37 26   LegendNANA
21:00 20.9 13.3 62 0.0 26 4   100.48     LegendNANA
22:00 20.2 13.5 65 0.0 28 6   100.51     LegendNANA
23:00 19.9 12.5 63 0.0 27 6   100.53     LegendNANA

Notes on Data Quality.

Legend

  • E = Estimated
  • M = Missing
  • NA = Not Available*
  • [empty] = Indicates an unobserved value
Date modified: